Simultaneous Nadir Overpasses (SNOs) Predictions

Prediction of SNOs between FY3D and NOAA-19 Satellite Orbit:

Table of predicted SNOs for the next 14.0 days since TLE Epoch: 8/21/2021
Index Date (FY3D) Time (FY3D) Lat,Lon (FY3D) SZA (FY3D ) Date (NOAA-19) Time (NOAA-19) Lat,Lon (NOAA-19) SZA (NOAA-19 ) Distance(km) Time Diff (sec)
1 08/27/2021 08:55:24 -78.00,-155.24 111.09 08/27/2021 08:54:17 -78.02,-158.29 110.78 70.46 67
2 08/27/2021 09:46:16 78.29, 10.52 69.32 08/27/2021 09:45:08 78.28, 10.53 69.34 0.74 68
3 08/27/2021 10:37:00 -78.28, 177.87 110.68 08/27/2021 10:36:10 -78.29, 177.85 110.65 1.44 50
4 08/27/2021 11:27:45 78.29, -14.87 69.35 08/27/2021 11:27:08 78.29, -14.90 69.36 0.79 37
5 08/27/2021 12:18:29 -78.28, 152.48 110.66 08/27/2021 12:18:10 -78.30, 152.41 110.63 2.68 19
6 08/27/2021 13:09:14 78.29, -40.26 69.37 08/27/2021 13:09:08 78.30, -40.34 69.39 2.11 6
7 08/27/2021 13:59:59 -78.32, 126.88 110.57 08/27/2021 14:00:10 -78.31, 126.96 110.60 2.57 11
8 08/27/2021 14:50:44 78.33, -65.86 69.46 08/27/2021 14:51:08 78.31, -65.78 69.42 3.31 24
9 08/27/2021 15:41:28 -78.33, 101.49 110.55 08/27/2021 15:42:10 -78.32, 101.52 110.57 1.20 42
10 08/27/2021 16:32:13 78.34, -91.25 69.48 08/27/2021 16:33:08 78.32, -91.21 69.45 2.08 55
11 08/27/2021 17:22:57 -78.33, 76.10 110.52 08/27/2021 17:24:10 -78.33, 76.08 110.54 0.45 73



Historial Predications of SNOs between FY3D and NOAA-19
